Weather History for CYVR - October, 2011

Change the Weather History Date:

Friday, October 28, 2011

  Actual Average Record
Temperature  
Mean Temperature 44 °F -  
Max Temperature 49 °F 49 °F 57 °F (2003)
Min Temperature 39 °F 40 °F 39 °F (2004)
Degree Days  
Heating Degree Days 21    
Moisture  
Dew Point 41 °F    
Average Humidity 86    
Maximum Humidity 100    
Minimum Humidity 61    
Precipitation  
Precipitation 0.47 in - - ()
Sea Level Pressure  
Sea Level Pressure 29.94 in    
Wind  
Wind Speed 7 mph ()    
Max Wind Speed 16 mph    
Max Gust Speed 17 mph    
Visibility 12.4 miles    
Events Fog , Rain    
Averages and records for this station are not official NWS values.
T = Trace of Precipitation, MM = Missing Value Source: Averaged Metar Reports

Daily Weather History Graph

Daily Weather History Graph

Search for Another Location

Airport or City:

Trip Planner

Search our weather history database for the weather conditions in past years. The results will help you decide how hot, cold, wet, or windy it might be!

Date:

Astronomy

Oct. 28, 2011 Rise Set
Actual Time 7:53 AM PDT 5:58 PM PDT
Civil Twilight 7:20 AM PDT 6:31 PM PDT
Nautical Twilight 6:43 AM PDT 7:08 PM PDT
Astronomical Twilight 6:06 AM PDT 7:45 PM PDT
Moon 10:32 AM PDT (10/28) 7:09 PM PDT (10/28)
Length of Visible Light 11h 10m
Length of Day
10h 04m
Waxing Crescent, 6% of the Moon is Illuminated
Oct 28
Waxing Crescent
Nov 2
First Quarter
Nov 10
Full
Nov 18
Last Quarter
Nov 24
New

Hourly Weather History & Observations

Time (PDT) Temp. Windchill Dew Point Humidity Pressure Visibility Wind Dir Wind Speed Gust Speed Precip Events Conditions
12:00 AM 42.8 °F 41.1 °F 39.2 °F 87% 30.07 in 20.0 mi East 3.5 mph - N/A   Overcast
1:00 AM 42.8 °F 38.0 °F 39.2 °F 87% 30.06 in 20.0 mi East 8.1 mph - N/A   Overcast
2:00 AM 42.8 °F 38.6 °F 39.2 °F 87% 30.07 in 20.0 mi East 6.9 mph - N/A   Overcast
3:00 AM 44.6 °F 40.7 °F 39.2 °F 81% 30.03 in 20.0 mi NE 6.9 mph - N/A   Overcast
4:00 AM 46.4 °F 41.5 °F 37.4 °F 71% 30.00 in 20.0 mi East 10.4 mph - N/A   Overcast
5:00 AM 45 °F - 38 °F 67% 30.00 in 19 mi East 8.1 mph - -   Overcast
5:00 AM 44.6 °F 40.7 °F 37.4 °F 76% 30.00 in 20.0 mi East 6.9 mph - N/A   Overcast
6:00 AM 46.4 °F 40.7 °F 37.4 °F 71% 29.98 in 20.0 mi SE 12.7 mph - N/A   Overcast
7:00 AM 46.4 °F 42.4 °F 37.4 °F 71% 29.93 in 20.0 mi East 8.1 mph - N/A   Overcast
8:00 AM 46.4 °F 41.5 °F 39.2 °F 76% 29.92 in 15.0 mi East 10.4 mph - N/A   Overcast
8:05 AM 46.4 °F 40.4 °F - N/A% - 15.0 mi East 13.8 mph - N/A Rain Light Rain
9:00 AM 46.4 °F 40.7 °F 39.2 °F 76% 29.91 in 15.0 mi East 12.7 mph - N/A Rain Light Rain
10:00 AM 48.2 °F - 39.2 °F 71% 29.88 in 12.0 mi East 12.7 mph - N/A Rain Light Rain
11:00 AM 49 °F - 40 °F 61% 29.88 in 7 mi ENE 12.7 mph - - Rain Light Rain
11:00 AM 48.2 °F - 39.2 °F 71% 29.88 in 8.0 mi ENE 11.5 mph - N/A Rain Light Rain
11:45 AM 46.4 °F 40.1 °F - N/A% - 4.0 mi East 15.0 mph - N/A Rain Light Rain
12:00 PM 46.4 °F 41.1 °F 42.8 °F 87% 29.89 in 4.0 mi East 11.5 mph 17.3 mph N/A Rain Light Rain
1:00 PM 46.4 °F 40.1 °F 44.6 °F 93% 29.88 in 4.0 mi East 15.0 mph - N/A Rain Rain
1:13 PM 46.4 °F 39.8 °F - N/A% - 7.0 mi East 16.1 mph - N/A Rain Light Rain
2:00 PM 46.4 °F 39.8 °F 44.6 °F 93% 29.85 in 15.0 mi East 16.1 mph - N/A Rain Light Rain
3:00 PM 46.4 °F 40.4 °F 44.6 °F 93% 29.85 in 15.0 mi East 13.8 mph - N/A Rain Light Rain
4:00 PM 46.4 °F 41.1 °F 44.6 °F 93% 29.85 in 15.0 mi ENE 11.5 mph - N/A Rain Light Rain
5:00 PM 47 °F - 46 °F 94% 29.86 in 15 mi ESE 8.1 mph - - Rain Light Rain
5:00 PM 46.4 °F 41.9 °F 46.4 °F 100% 29.86 in 15.0 mi ESE 9.2 mph - N/A   Overcast
6:00 PM 48.2 °F - 46.4 °F 93% 29.87 in 15.0 mi East 6.9 mph - N/A   Overcast
6:20 PM 46.4 °F 44.3 °F - N/A% - 15.0 mi East 4.6 mph - N/A   Mostly Cloudy
7:00 PM 46.4 °F 45.2 °F 46.4 °F 100% 29.91 in 15.0 mi NE 3.5 mph - N/A   Scattered Clouds
7:09 PM 46.4 °F - - N/A% - 15.0 mi Calm Calm - N/A Fog Shallow Fog
8:00 PM 44.6 °F 43.1 °F 44.6 °F 100% 29.95 in 15.0 mi East 3.5 mph - N/A Fog Shallow Fog
9:00 PM 44.6 °F - 44.6 °F 100% 29.97 in 15.0 mi South 2.3 mph - N/A Fog Shallow Fog
9:39 PM 41.0 °F 39.0 °F - N/A% - 2.5 mi ESE 3.5 mph - N/A   Partly Cloudy
9:46 PM 41.0 °F 39.0 °F - N/A% - 12.0 mi East 3.5 mph - N/A Fog Shallow Fog
10:00 PM 42.8 °F 41.1 °F 42.8 °F 100% 30.00 in 2.5 mi ENE 3.5 mph - N/A   Scattered Clouds
10:27 PM 41.0 °F - - N/A% - 1.0 mi Calm Calm - N/A   Scattered Clouds
10:40 PM 41.0 °F - - N/A% - 2.5 mi Calm Calm - N/A   Scattered Clouds
11:00 PM 40 °F - 40 °F 98% 30.04 in 2 mi East 4.6 mph - -   Mist
11:00 PM 39.2 °F 35.9 °F 39.2 °F 100% 30.04 in 2.5 mi ESE 4.6 mph - N/A   Scattered Clouds
11:32 PM 41.0 °F 39.0 °F - N/A% - 12.0 mi East 3.5 mph - N/A Fog Shallow Fog